Retour au catalogue

STARLINK-37162

ActifCommunicationsVLEO
NORAD 68262·PAYLOAD·🇺🇸 United States

Lancé Mar 19, 2026 depuis Vandenberg Space Force Base

Loading…

Prochains Passages (prochaines 24 heures)

TLE

FraisSource: CelesTrak SupGP

Époque: Sep 15, 2026, 04:08 UTC

1 68262C 26055A   26258.17270833  .00052605  00000+0  15547-2 0  2585
2 68262  53.1577 154.8730 0001228  92.9516 199.9681 15.34354391    19

Suivez STARLINK-37162 en temps réel avec AllMySat

Download on the App Store